Las Vegas, NV

9:35 AM PST on December 11, 2017 (GMT -0800)
McCarran International

Weather History for KLAS - October, 2012

Change the Weather History Date:

Tuesday, October 9, 2012

  Actual Average Record
Temperature  
Mean Temperature 80 °F 72 °F  
Max Temperature 90 °F 84 °F 97 °F (1964)
Min Temperature 70 °F 61 °F 41 °F (1949)
Degree Days  
Heating Degree Days 0 0  
Month to date heating degree days 0 0  
Since 1 July heating degree days 0 1  
Cooling Degree Days 15 8  
Month to date cooling degree days 145 85  
Year to date cooling degree days 3916 3462  
Growing Degree Days 30 (Base 50)    
Moisture  
Dew Point 26 °F    
Average Humidity 15    
Maximum Humidity 22    
Minimum Humidity 8    
Precipitation  
Precipitation 0.00 in 0.01 in 0.44 in (1960)
Month to date precipitation 0.00 0.06  
Year to date precipitation 3.88 3.12  
Snow  
Snow 0.00 in 0.00 in 0.00 in ()
Month to date snowfall 0.0 0.0  
Since 1 July snowfall 0.0 0.0  
Since 1 September snowfall 0.0 0.0  
Snow Depth 0.00 in    
Sea Level Pressure  
Sea Level Pressure 29.78 in    
Wind  
Wind Speed 13 mph (South)    
Max Wind Speed 23 mph    
Max Gust Speed 28 mph    
Visibility 10 miles    
Events      
T = Trace of Precipitation, MM = Missing Value Source: NWS Daily Summary

Daily Weather History Graph

Daily Weather History Graph

Search for Another Location

Airport or City:

Trip Planner

Search our weather history database for the weather conditions in past years. The results will help you decide how hot, cold, wet, or windy it might be!

Date:

Astronomy

Oct. 09, 2012 Rise Set
Actual Time 6:42 AM PDT 6:12 PM PDT
Civil Twilight 6:17 AM PDT 6:37 PM PDT
Nautical Twilight 5:47 AM PDT 7:07 PM PDT
Astronomical Twilight 5:17 AM PDT 7:37 PM PDT
Moon 12:34 AM PDT (10/9) 2:32 PM PDT (10/9)
Length of Visible Light 12h 20m
Length of Day
11h 29m
Waning Crescent, 35% of the Moon is Illuminated
Oct 9
Waning Crescent
Oct 15
New
Oct 21
First Quarter
Oct 29
Full
Nov 6
Last Quarter

Hourly Weather History & Observations

Time (PDT) Temp. Dew Point Humidity Pressure Visibility Wind Dir Wind Speed Gust Speed Precip Events Conditions
12:56 AM 77.0 °F 26.1 °F 15% 29.78 in 10.0 mi SSE 9.2 mph - N/A   Scattered Clouds
1:56 AM 75.9 °F 27.0 °F 16% 29.77 in 10.0 mi South 17.3 mph - N/A   Mostly Cloudy
2:56 AM 75.0 °F 27.0 °F 17% 29.76 in 10.0 mi South 18.4 mph - N/A   Scattered Clouds
3:56 AM 73.9 °F 28.9 °F 19% 29.76 in 10.0 mi South 16.1 mph 24.2 mph N/A   Scattered Clouds
4:56 AM 72.0 °F 28.9 °F 20% 29.78 in 10.0 mi SSW 10.4 mph - N/A   Scattered Clouds
5:56 AM 72.0 °F 28.9 °F 20% 29.79 in 10.0 mi South 15.0 mph - N/A   Scattered Clouds
6:56 AM 72.0 °F 30.0 °F 21% 29.81 in 10.0 mi SSW 20.7 mph - N/A   Scattered Clouds
7:56 AM 72.0 °F 30.9 °F 22% 29.83 in 10.0 mi South 15.0 mph 23.0 mph N/A   Scattered Clouds
8:56 AM 75.0 °F 28.0 °F 18% 29.84 in 10.0 mi South 13.8 mph - N/A   Partly Cloudy
9:56 AM 78.1 °F 25.0 °F 14% 29.85 in 10.0 mi SSE 10.4 mph - N/A   Partly Cloudy
10:56 AM 82.0 °F 19.9 °F 10% 29.83 in 10.0 mi South 15.0 mph - N/A   Partly Cloudy
11:56 AM 84.0 °F 17.1 °F 8% 29.81 in 10.0 mi SSW 12.7 mph - N/A   Scattered Clouds
12:56 PM 84.9 °F 19.9 °F 9% 29.79 in 10.0 mi South 8.1 mph - N/A   Scattered Clouds
1:56 PM 87.1 °F 27.0 °F 11% 29.75 in 10.0 mi SSW 11.5 mph - N/A   Scattered Clouds
2:56 PM 87.1 °F 28.0 °F 12% 29.74 in 10.0 mi SSW 6.9 mph - N/A   Scattered Clouds
3:56 PM 88.0 °F 24.1 °F 10% 29.73 in 10.0 mi SW 6.9 mph - N/A   Scattered Clouds
4:56 PM 88.0 °F 25.0 °F 10% 29.72 in 10.0 mi South 17.3 mph 23.0 mph N/A   Scattered Clouds
5:56 PM 86.0 °F 24.1 °F 10% 29.73 in 10.0 mi SSW 15.0 mph - N/A   Mostly Cloudy
6:56 PM 84.0 °F 23.0 °F 11% 29.74 in 10.0 mi SSW 12.7 mph - N/A   Mostly Cloudy
7:56 PM 81.0 °F 26.1 °F 13% 29.77 in 10.0 mi SSW 10.4 mph - N/A   Mostly Cloudy
8:56 PM 79.0 °F 28.0 °F 15% 29.79 in 10.0 mi South 10.4 mph - N/A   Mostly Cloudy
9:56 PM 77.0 °F 28.9 °F 17% 29.79 in 10.0 mi SSW 11.5 mph - N/A   Mostly Cloudy
10:56 PM 75.9 °F 28.9 °F 18% 29.80 in 10.0 mi SSW 8.1 mph - N/A   Overcast
11:56 PM 75.0 °F 28.9 °F 18% 29.80 in 10.0 mi SSW 8.1 mph - N/A   Overcast